Fairfield, IL

4:38 AM CST on December 08, 2019 (GMT -0600)
Fairfield Municipal

Weather History for KFWC - November, 2019

Change the Weather History Date:

Saturday, November 16, 2019

  Actual Average (KEVV) Record (KEVV)
Temperature  
Mean Temperature 35 °F -  
Max Temperature 44 °F 55 °F 78 °F (1952)
Min Temperature 26 °F 35 °F 18 °F (1997)
Degree Days  
Heating Degree Days 30    
Moisture  
Dew Point 29 °F    
Average Humidity 83    
Maximum Humidity 100    
Minimum Humidity 61    
Precipitation  
Precipitation 0.00 in - - ()
Sea Level Pressure  
Sea Level Pressure 30.28 in    
Wind  
Wind Speed 2 mph ()    
Max Wind Speed 6 mph    
Max Gust Speed -    
Visibility 7.1 miles    
Events      
Averages and records for this station are not official NWS values.
T = Trace of Precipitation, MM = Missing Value Source: Averaged Metar Reports

Daily Weather History Graph

Daily Weather History Graph

Search for Another Location

Airport or City:

Astronomy

Nov. 16, 2019 Rise Set
Actual Time 6:36 AM CST 4:40 PM CST
Civil Twilight 6:07 AM CST 5:08 PM CST
Nautical Twilight 5:35 AM CST 5:40 PM CST
Astronomical Twilight 5:04 AM CST 6:12 PM CST
Moon 8:14 PM CST (11/16) 10:28 AM CST (11/16)
Length of Visible Light 11h 00m
Length of Day
10h 04m
Waning Gibbous, 82% of the Moon is Illuminated
Nov 16
Waning Gibbous
Nov 19
Last Quarter
Nov 26
New
Dec 4
First Quarter
Dec 11
Full

Hourly Weather History & Observations

Time (CST) Temp. Windchill Dew Point Humidity Pressure Visibility Wind Dir Wind Speed Gust Speed Precip Events Conditions
12:15 AM 30.4 °F 26.9 °F 25.3 °F 82% 30.35 in 10.0 mi North 3.5 mph - N/A   Clear
12:55 AM 30.2 °F 26.7 °F 25.5 °F 83% 30.34 in 10.0 mi North 3.5 mph - N/A   Clear
1:15 AM 30.0 °F 26.5 °F 25.5 °F 83% 30.34 in 10.0 mi North 3.5 mph - N/A   Clear
1:35 AM 30.0 °F 26.5 °F 25.7 °F 84% 30.35 in 10.0 mi North 3.5 mph - N/A   Clear
1:55 AM 29.3 °F 25.6 °F 25.3 °F 85% 30.35 in 10.0 mi North 3.5 mph - N/A   Clear
2:15 AM 28.9 °F 25.2 °F 25.3 °F 86% 30.34 in 10.0 mi North 3.5 mph - N/A   Clear
2:35 AM 29.1 °F - 25.5 °F 86% 30.34 in 10.0 mi Calm Calm - N/A   Clear
2:55 AM 28.6 °F - 25.3 °F 88% 30.34 in 10.0 mi Calm Calm - N/A   Clear
3:15 AM 28.2 °F 24.4 °F 25.3 °F 89% 30.33 in 10.0 mi North 3.5 mph - N/A   Clear
3:35 AM 28.4 °F - 25.7 °F 90% 30.33 in 10.0 mi Calm Calm - N/A   Clear
4:15 AM 28.6 °F 24.8 °F 25.7 °F 89% 30.34 in 7.0 mi North 3.5 mph - N/A   Clear
4:35 AM 28.6 °F 24.8 °F 26.2 °F 91% 30.35 in 7.0 mi North 3.5 mph - N/A   Clear
4:55 AM 28.0 °F - 25.9 °F 92% 30.35 in 7.0 mi Calm Calm - N/A   Clear
5:15 AM 28.2 °F - 26.4 °F 93% 30.35 in 7.0 mi Calm Calm - N/A   Clear
5:35 AM 28.0 °F - 26.4 °F 94% 30.35 in 7.0 mi Calm Calm - N/A   Clear
5:55 AM 26.8 °F - 25.2 °F 94% 30.35 in 7.0 mi Calm Calm - N/A   Clear
6:15 AM 27.5 °F - 26.6 °F 96% 30.36 in 7.0 mi Calm Calm - N/A   Clear
6:35 AM 27.9 °F - 27.3 °F 98% 30.36 in 4.0 mi Calm Calm - N/A   Clear
6:55 AM 27.0 °F - 26.6 °F 99% 30.36 in 4.0 mi Calm Calm - N/A   Clear
7:15 AM 27.3 °F - 27.1 °F 99% 30.37 in 3.0 mi Calm Calm - N/A   Clear
7:35 AM 29.3 °F - 28.4 °F 96% 30.37 in 4.0 mi Calm Calm - N/A   Clear
7:55 AM 31.1 °F - 29.3 °F 93% 30.37 in 4.0 mi Calm Calm - N/A   Clear
8:15 AM 32.0 °F 28.7 °F 30.4 °F 94% 30.37 in 5.0 mi NE 3.5 mph - N/A   Clear
8:35 AM 33.1 °F - 30.6 °F 90% 30.36 in 5.0 mi Calm Calm - N/A   Clear
8:55 AM 34.5 °F - 31.1 °F 87% 30.36 in 5.0 mi Calm Calm - N/A   Clear
9:15 AM 35.6 °F 30.7 °F 31.1 °F 84% 30.36 in 7.0 mi ENE 5.8 mph - N/A   Clear
9:35 AM 36.5 °F 32.7 °F 31.3 °F 81% 30.35 in 7.0 mi NE 4.6 mph - N/A   Clear
9:55 AM 37.0 °F 33.3 °F 30.7 °F 78% 30.35 in 7.0 mi East 4.6 mph - N/A   Clear
10:15 AM 38.1 °F 35.7 °F 31.1 °F 76% 30.34 in 7.0 mi ENE 3.5 mph - N/A   Clear
10:35 AM 39.2 °F 35.9 °F 31.3 °F 73% 30.34 in 7.0 mi East 4.6 mph - N/A   Clear
10:55 AM 39.7 °F - 31.1 °F 71% 30.33 in 7.0 mi Calm Calm - N/A   Clear
11:15 AM 40.6 °F - 31.5 °F 70% 30.32 in 7.0 mi Calm Calm - N/A   Clear
11:35 AM 41.4 °F - 32.0 °F 69% 30.30 in 10.0 mi Calm Calm - N/A   Clear
11:55 AM 41.7 °F - 31.6 °F 67% 30.30 in 10.0 mi Calm Calm - N/A   Clear
12:15 PM 42.8 °F 41.1 °F 32.0 °F 66% 30.28 in 10.0 mi ENE 3.5 mph - N/A   Clear
12:35 PM 42.8 °F - 31.8 °F 65% 30.28 in 10.0 mi Calm Calm - N/A   Clear
12:55 PM 43.2 °F - 32.0 °F 65% 30.27 in 10.0 mi Calm Calm - N/A   Clear
1:15 PM 43.9 °F - 32.2 °F 63% 30.26 in 10.0 mi Calm Calm - N/A   Clear
1:35 PM 44.2 °F 42.7 °F 32.0 °F 62% 30.25 in 10.0 mi NNE 3.5 mph - N/A   Clear
1:55 PM 43.9 °F 42.3 °F 32.0 °F 63% 30.24 in 10.0 mi NE 3.5 mph - N/A   Clear
2:15 PM 44.1 °F - 32.0 °F 63% 30.23 in 10.0 mi Calm Calm - N/A   Clear
2:35 PM 44.6 °F - 31.8 °F 61% 30.23 in 7.0 mi Calm Calm - N/A   Clear
2:55 PM 44.4 °F - 32.0 °F 62% 30.23 in 10.0 mi Calm Calm - N/A   Clear
3:15 PM 44.2 °F 42.7 °F 32.0 °F 62% 30.23 in 10.0 mi North 3.5 mph - N/A   Clear
3:35 PM 43.7 °F 41.1 °F 32.0 °F 63% 30.23 in 10.0 mi NNE 4.6 mph - N/A   Clear
3:55 PM 42.1 °F 39.2 °F 32.0 °F 67% 30.22 in 3.0 mi NE 4.6 mph - N/A   Haze
4:15 PM 40.6 °F 37.5 °F 31.8 °F 71% 30.22 in 3.0 mi NE 4.6 mph - N/A   Haze
4:35 PM 39.4 °F 37.2 °F 31.5 °F 73% 30.22 in 7.0 mi NE 3.5 mph - N/A   Clear
4:55 PM 37.4 °F 33.8 °F 30.6 °F 76% 30.22 in 10.0 mi NE 4.6 mph - N/A   Clear
5:15 PM 36.1 °F 33.5 °F 30.0 °F 78% 30.22 in 10.0 mi NE 3.5 mph - N/A   Clear
5:55 PM 35.1 °F - 29.7 °F 81% 30.22 in 10.0 mi Calm Calm - N/A   Clear
6:35 PM 34.9 °F - 30.0 °F 82% 30.22 in 7.0 mi Calm Calm - N/A   Clear
7:15 PM 33.1 °F - 30.2 °F 89% 30.21 in 7.0 mi Calm Calm - N/A   Clear
7:35 PM 33.3 °F - 29.3 °F 85% 30.20 in 5.0 mi Calm Calm - N/A   Clear
7:55 PM 32.2 °F - 29.5 °F 90% 30.19 in 5.0 mi Calm Calm - N/A   Clear
8:15 PM 31.6 °F - 29.8 °F 93% 30.20 in 5.0 mi Calm Calm - N/A   Clear
8:35 PM 29.5 °F - 27.1 °F 91% 30.20 in 5.0 mi Calm Calm - N/A   Clear
8:55 PM 30.2 °F - 28.4 °F 93% 30.20 in 5.0 mi Calm Calm - N/A   Clear
9:15 PM 28.9 °F - 28.6 °F 99% 30.19 in 4.0 mi Calm Calm - N/A   Clear
9:35 PM 28.8 °F - 28.6 °F 99% 30.19 in 4.0 mi Calm Calm - N/A   Clear
9:55 PM 29.7 °F - 29.3 °F 99% 30.18 in 3.0 mi Calm Calm - N/A   Clear
10:15 PM 29.5 °F - 29.5 °F 100% 30.17 in 3.0 mi Calm Calm - N/A   Clear
10:35 PM 28.9 °F - 28.0 °F 96% 30.17 in 5.0 mi Calm Calm - N/A   Clear
10:55 PM 27.7 °F - 26.2 °F 94% 30.16 in 4.0 mi Calm Calm - N/A   Clear
11:15 PM 28.0 °F - 28.0 °F 100% 30.17 in 4.0 mi Calm Calm - N/A   Clear
11:35 PM 27.9 °F - 27.9 °F 100% 30.17 in 4.0 mi Calm Calm - N/A   Clear
11:55 PM 28.8 °F - 28.0 °F 97% 30.15 in 4.0 mi Calm Calm - N/A   Clear